Location: Monroe
(41.3286°N, 74.1872°W)
Time: 23:28:09
(UTC+00:00)

ARIANE 6 FM1 Upper Stage - Visible Passes

Search period start: 17 January 2026 00:00
Search period end: 27 January 2026 00:00
Orbit: 522 x 610 km, 62.0° (Epoch: 17 January)

Date Brightness Start Highest point End Pass type
(mag) Time Alt. Az. Time Alt. Az. Time Alt. Az.
17 Jan 4.2 10:04:11 25° S 10:04:11 25° S 10:06:01 10° SSE visible
18 Jan 5.0 10:05:13 14° S 10:05:13 14° S 10:05:52 10° S visible
18 Jan 4.9 23:58:07 10° S 23:58:53 14° S 23:58:53 14° S visible
19 Jan 4.0 23:57:49 10° S 00:00:01 27° S 00:00:01 27° S visible
20 Jan 3.0 23:57:44 10° SSW 00:01:03 51° S 00:01:03 51° S visible
21 Jan 2.5 23:57:51 10° SW 00:01:57 86° NW 00:02:00 85° NNW visible
22 Jan 3.0 23:58:07 10° SW 00:02:08 57° NW 00:02:53 48° N visible
23 Jan 3.8 23:58:32 10° WSW 00:02:23 39° NW 00:03:39 30° N visible
24 Jan 4.3 23:59:07 10° WSW 00:02:38 27° NW 00:04:21 20° N visible
25 Jan 4.8 23:59:52 10° W 00:02:57 20° NW 00:04:56 15° N visible
